sat.trackr.live / text

‹ back to catalog

STARLINK-36315

NORAD 67731 · 2026-026L

PAYLOAD ACTIVE UNKNOWN

§ Identity

Operator
Country
US
Launch date
2026-02-11
Launch site
AFWTR
Launch vehicle
Mass (kg)
RCS (m²)

Purposes: comms

External: N2YO · Heavens-Above · Gunter

§ Orbital elements

Epoch: 2026-09-18T22:59:48.004800Z

Period
93.91 min
Inclination
97.2849°
Eccentricity
0.0001225
Mean motion
15.33444591 rev/d
Perigee alt
464.7 km
Apogee alt
466.4 km
Semi-major
6,843.7 km
B*
3.9334e-4
RAAN
313.8019°
Arg perigee
165.1944°
Mean anomaly
194.9335°
Rev number
3,374

§ Raw data

STARLINK-363151 67731U 26026L   26261.95819450  .00012645  00000+0  39334-3 0  99902 67731  97.2849 313.8019 0001225 165.1944 194.9335 15.33444591 33740

JSON: /api/v1/satellites/67731 · /tle

For live sub-satellite position, see the globe view (requires WebGL).

§ Visibility from observer

Set your observer location to see the next 7 days of passes ≥ 10°. The values pass through the URL so the page stays shareable.

No JS? Fill the form by hand. The geolocation button needs JavaScript.